Mount Holly, NJ

7:25 PM EST on December 15, 2019 (GMT -0500)
South Jersey Regional

Weather History for KVAY - August, 2019

Change the Weather History Date:

Tuesday, August 13, 2019

  Actual Average (KPNE) Record (KPNE)
Temperature  
Mean Temperature 76 °F -  
Max Temperature 79 °F 83 °F 99 °F (2002)
Min Temperature 73 °F 66 °F 57 °F (2006)
Cooling Degree Days 10    
Growing Degree Days 26 (Base 50)    
Moisture  
Dew Point 71 °F    
Average Humidity 87    
Maximum Humidity 96    
Minimum Humidity 73    
Precipitation  
Precipitation 0.14 in - - ()
Sea Level Pressure  
Sea Level Pressure 29.81 in    
Wind  
Wind Speed 2 mph (SSW)    
Max Wind Speed 8 mph    
Max Gust Speed -    
Visibility 6 miles    
Events Fog , Rain    
Averages and records for this station are not official NWS values.
T = Trace of Precipitation, MM = Missing Value Source: NWS Daily Summary

Daily Weather History Graph

Daily Weather History Graph

Search for Another Location

Airport or City:

Astronomy

Aug. 13, 2019 Rise Set
Actual Time 6:09 AM EDT 7:58 PM EDT
Civil Twilight 5:39 AM EDT 8:28 PM EDT
Nautical Twilight 5:04 AM EDT 9:03 PM EDT
Astronomical Twilight 4:26 AM EDT 9:41 PM EDT
Moon 7:11 PM EDT (8/13) 4:08 AM EDT (8/13)
Length of Visible Light 14h 48m
Length of Day
13h 49m
Waxing Gibbous, 97% of the Moon is Illuminated
Aug 13
Waxing Gibbous
Aug 15
Full
Aug 23
Last Quarter
Aug 30
New
Sep 5
First Quarter

Hourly Weather History & Observations

Time (EDT) Temp. Dew Point Humidity Pressure Visibility Wind Dir Wind Speed Gust Speed Precip Events Conditions
12:54 AM 73.0 °F 66.0 °F 79% 29.89 in 10.0 mi Calm Calm - N/A   Clear
1:54 AM 73.9 °F 66.9 °F 79% 29.88 in 10.0 mi Variable 3.5 mph - N/A   Partly Cloudy
2:54 AM 73.9 °F 66.0 °F 76% 29.85 in 10.0 mi Variable 4.6 mph - N/A   Mostly Cloudy
3:54 AM 73.9 °F 64.9 °F 73% 29.84 in 10.0 mi Variable 3.5 mph - N/A   Overcast
4:54 AM 73.9 °F 66.0 °F 76% 29.83 in 10.0 mi Variable 3.5 mph - N/A   Mostly Cloudy
5:54 AM 73.9 °F 66.0 °F 76% 29.83 in 10.0 mi Variable 3.5 mph - N/A   Clear
6:54 AM 73.9 °F 66.9 °F 79% 29.83 in 10.0 mi Calm Calm - N/A   Clear
7:54 AM 75.9 °F 68.0 °F 76% 29.83 in 10.0 mi Variable 3.5 mph - N/A   Clear
8:54 AM 75.9 °F 69.1 °F 79% 29.83 in 10.0 mi SW 4.6 mph - 0.00 in Rain Light Rain
9:54 AM 78.1 °F 69.1 °F 74% 29.83 in 10.0 mi SSW 5.8 mph - 0.00 in   Mostly Cloudy
10:54 AM 77.0 °F 70.0 °F 79% 29.83 in 6.0 mi SW 3.5 mph - 0.00 in Rain Light Rain
11:54 AM 77.0 °F 72.0 °F 84% 29.83 in 10.0 mi West 3.5 mph - 0.00 in   Overcast
12:32 PM 77.0 °F 72.0 °F 84% 29.85 in 1.8 mi Variable 3.5 mph - 0.04 in Rain Heavy Rain
12:42 PM 75.0 °F 71.1 °F 87% 29.81 in 3.0 mi NNE 8.1 mph - 0.05 in Rain Light Rain
12:54 PM 75.0 °F 71.1 °F 87% 29.84 in 10.0 mi WSW 4.6 mph - 0.05 in Rain Light Rain
1:54 PM 75.9 °F 72.0 °F 87% 29.81 in 6.0 mi Calm Calm - 0.01 in Rain Light Rain
2:03 PM 75.9 °F 72.0 °F 87% 29.81 in 7.0 mi Calm Calm - 0.00 in Rain Light Rain
2:18 PM 75.9 °F 72.0 °F 87% 29.80 in 6.0 mi Calm Calm - 0.00 in Rain Light Rain
2:54 PM 77.0 °F 73.9 °F 90% 29.79 in 7.0 mi Variable 4.6 mph - 0.01 in   Overcast
3:46 PM 78.1 °F 73.9 °F 87% 29.78 in 10.0 mi Calm Calm - N/A   Mostly Cloudy
3:54 PM 78.1 °F 73.0 °F 84% 29.78 in 10.0 mi ESE 5.8 mph - N/A   Mostly Cloudy
4:04 PM 78.1 °F 73.0 °F 84% 29.78 in 10.0 mi East 3.5 mph - N/A   Scattered Clouds
4:54 PM 75.9 °F 72.0 °F 87% 29.78 in 7.0 mi Variable 3.5 mph - 0.01 in Rain Light Rain
5:54 PM 75.9 °F 73.0 °F 91% 29.78 in 7.0 mi Calm Calm - 0.00 in   Overcast
6:54 PM 75.0 °F 73.0 °F 94% 29.78 in 5.0 mi Calm Calm - 0.01 in Rain Light Rain
7:54 PM 73.9 °F 72.0 °F 93% 29.78 in 3.0 mi Calm Calm - 0.01 in   Overcast
8:54 PM 73.9 °F 72.0 °F 93% 29.78 in 4.0 mi Calm Calm - 0.01 in Rain Light Rain
9:09 PM 73.9 °F 72.0 °F 93% 29.78 in 2.5 mi Calm Calm - 0.01 in Rain Light Rain
9:20 PM 73.9 °F 72.0 °F 93% 29.79 in 3.0 mi Calm Calm - 0.01 in Rain Light Rain
9:46 PM 73.9 °F 72.0 °F 93% 29.79 in 2.5 mi Calm Calm - 0.01 in   Overcast
9:54 PM 73.9 °F 72.0 °F 93% 29.79 in 2.5 mi Calm Calm - 0.01 in   Mostly Cloudy
10:41 PM 73.0 °F 72.0 °F 96% 29.79 in 1.8 mi North - - 0.00 in Rain Light Rain
10:49 PM 73.4 °F 71.6 °F 94% 29.79 in 2.5 mi Calm Calm - 0.01 in Rain Light Rain
10:54 PM 73.9 °F 72.0 °F 93% 29.79 in 2.0 mi Calm Calm - 0.01 in Rain Light Rain
11:35 PM 73.0 °F 72.0 °F 96% 29.79 in 1.0 mi Calm Calm - 0.01 in Rain Light Rain
11:42 PM 73.0 °F 72.0 °F 96% 29.79 in 0.5 mi Calm Calm - 0.01 in Fog , Rain Light Rain
11:51 PM 73.4 °F 71.6 °F 94% 29.79 in 1.2 mi Calm Calm - 0.01 in   Overcast
11:54 PM 73.0 °F 72.0 °F 96% 29.78 in 1.8 mi Calm Calm - 0.01 in   Overcast